Satellite: HUBBLE
Catalog number: 20580
Epoch time:      10006.86498872
Element set:     499
Inclination:      028.4697 deg
RA of node:       212.9301 deg
Eccentricity:    0.0003271
Arg of perigee:   285.0678 deg
Mean anomaly:     074.9550 deg
Mean motion:   15.00875268 rev/day
Decay rate:       3.29e-06 rev/day^2
Epoch rev:           88048
Checksum:              322

Satellite: ISS
Catalog number: 25544
Epoch time:      10008.06761631
Element set:     328
Inclination:      051.6470 deg
RA of node:       333.3865 deg
Eccentricity:    0.0007755
Arg of perigee:   157.1785 deg
Mean anomaly:     297.1097 deg
Mean motion:   15.77228506 rev/day
Decay rate:     1.0902e-04 rev/day^2
Epoch rev:           63824
Checksum:              304

Satellite: CO-58
Catalog number: 28895
Epoch time:      10006.22645861
Element set:    0481
Inclination:      098.0375 deg
RA of node:       255.8548 deg
Eccentricity:    0.0018878
Arg of perigee:   073.7724 deg
Mean anomaly:     286.5524 deg
Mean motion:   14.59831647 rev/day
Decay rate:        9.0e-07 rev/day^2
Epoch rev:           22335
Checksum:              345

Satellite: FALCON
Catalog number: 30776
Epoch time:      10006.92143374
Element set:    0751
Inclination:      035.4346 deg
RA of node:       303.1796 deg
Eccentricity:    0.0001261
Arg of perigee:   282.9268 deg
Mean anomaly:     077.1313 deg
Mean motion:   15.03415426 rev/day
Decay rate:       3.66e-06 rev/day^2
Epoch rev:           15577
Checksum:              279

Satellite: MAST
Catalog number: 31126
Epoch time:      10006.66135283
Element set:    0771
Inclination:      097.9602 deg
RA of node:       056.8371 deg
Eccentricity:    0.0094905
Arg of perigee:   008.7510 deg
Mean anomaly:     351.5310 deg
Mean motion:   14.53544007 rev/day
Decay rate:        9.0e-08 rev/day^2
Epoch rev:           14459
Checksum:              274

Satellite: CAPE1
Catalog number: 31130
Epoch time:      10006.62470748
Element set:    0786
Inclination:      097.9624 deg
RA of node:       054.5409 deg
Eccentricity:    0.0102829
Arg of perigee:   015.8623 deg
Mean anomaly:     344.5676 deg
Mean motion:   14.52120823 rev/day
Decay rate:      -1.10e-06 rev/day^2
Epoch rev:           14421
Checksum:              273

Satellite: COMPASS
Catalog number: 32787
Epoch time:      10006.17296983
Element set:    0564
Inclination:      097.9152 deg
RA of node:       073.0063 deg
Eccentricity:    0.0016918
Arg of perigee:   092.8835 deg
Mean anomaly:     267.4301 deg
Mean motion:   14.81729877 rev/day
Decay rate:       3.08e-06 rev/day^2
Epoch rev:           09150
Checksum:              318

Satellite: AAUSAT2
Catalog number: 32788
Epoch time:      10006.59623676
Element set:    0556
Inclination:      097.9158 deg
RA of node:       073.5179 deg
Eccentricity:    0.0016633
Arg of perigee:   092.0373 deg
Mean anomaly:     268.2711 deg
Mean motion:   14.81859001 rev/day
Decay rate:      -1.40e-06 rev/day^2
Epoch rev:           09157
Checksum:              312

Satellite: DO-64
Catalog number: 32789
Epoch time:      10006.61565757
Element set:    0573
Inclination:      097.9212 deg
RA of node:       073.8501 deg
Eccentricity:    0.0016700
Arg of perigee:   090.9979 deg
Mean anomaly:     269.3175 deg
Mean motion:   14.81914074 rev/day
Decay rate:       6.68e-06 rev/day^2
Epoch rev:           09157
Checksum:              338

Satellite: CO-66
Catalog number: 32791
Epoch time:      10006.17277400
Element set:    0553
Inclination:      097.9175 deg
RA of node:       073.0352 deg
Eccentricity:    0.0017305
Arg of perigee:   091.2633 deg
Mean anomaly:     269.0535 deg
Mean motion:   14.81540378 rev/day
Decay rate:       2.58e-06 rev/day^2
Epoch rev:           09146
Checksum:              296

Satellite: RS-30
Catalog number: 32953
Epoch time:      10006.82843944
Element set:    0495
Inclination:      082.5022 deg
RA of node:       130.0164 deg
Eccentricity:    0.0019788
Arg of perigee:   095.3340 deg
Mean anomaly:     264.9997 deg
Mean motion:   12.43003136 rev/day
Decay rate:        1.0e-07 rev/day^2
Epoch rev:           07369
Checksum:              289

Satellite: TACSAT-3
Catalog number: 35001
Epoch time:      10007.70587215
Element set:     186
Inclination:      040.4551 deg
RA of node:       096.7872 deg
Eccentricity:    0.0023560
Arg of perigee:   247.0458 deg
Mean anomaly:     112.7870 deg
Mean motion:   15.39931762 rev/day
Decay rate:      3.274e-05 rev/day^2
Epoch rev:            3587
Checksum:              294

Satellite: PHARMSAT
Catalog number: 35002
Epoch time:      10007.65807274
Element set:     178
Inclination:      040.4685 deg
RA of node:       095.7670 deg
Eccentricity:    0.0026784
Arg of perigee:   250.1911 deg
Mean anomaly:     109.6016 deg
Mean motion:   15.40626833 rev/day
Decay rate:      2.824e-05 rev/day^2
Epoch rev:            3587
Checksum:              288

Satellite: HAWKSAT1
Catalog number: 35003
Epoch time:      10007.60544554
Element set:     185
Inclination:      040.4618 deg
RA of node:       094.2768 deg
Eccentricity:    0.0025930
Arg of perigee:   256.1979 deg
Mean anomaly:     103.5947 deg
Mean motion:   15.41996693 rev/day
Decay rate:      5.980e-05 rev/day^2
Epoch rev:            3589
Checksum:              321

